Cherry Point, NC

6:28 PM EDT on August 20, 2019 (GMT -0400)
Cherry Point Marine Corps Air Station

Weather History for KNKT - July, 2019

Change the Weather History Date:

Sunday, July 21, 2019

  Actual Average Record
Temperature  
Mean Temperature 88 °F -  
Max Temperature 99 °F 84 °F 99 °F (2019)
Min Temperature 77 °F 69 °F 66 °F (2000)
Cooling Degree Days 23    
Growing Degree Days 38 (Base 50)    
Moisture  
Dew Point 74 °F    
Average Humidity 67    
Maximum Humidity 88    
Minimum Humidity 39    
Precipitation  
Precipitation 0.00 in - - ()
Sea Level Pressure  
Sea Level Pressure 29.99 in    
Wind  
Wind Speed 10 mph (SW)    
Max Wind Speed 17 mph    
Max Gust Speed 23 mph    
Visibility 10 miles    
Events      
Averages and records for this station are not official NWS values.
T = Trace of Precipitation, MM = Missing Value Source: NWS Daily Summary

Daily Weather History Graph

Daily Weather History Graph

Search for Another Location

Airport or City:

Astronomy

Jul. 21, 2019 Rise Set
Actual Time 6:09 AM EDT 8:18 PM EDT
Civil Twilight 5:40 AM EDT 8:47 PM EDT
Nautical Twilight 5:05 AM EDT 9:21 PM EDT
Astronomical Twilight 4:27 AM EDT 9:59 PM EDT
Moon 11:21 PM EDT (7/21) 10:19 AM EDT (7/21)
Length of Visible Light 15h 06m
Length of Day
14h 09m
Waning Gibbous, 80% of the Moon is Illuminated
Jul 21
Waning Gibbous
Jul 24
Last Quarter
Jul 31
New
Aug 7
First Quarter
Aug 15
Full

Hourly Weather History & Observations

Time (EDT) Temp. Heat Index Dew Point Humidity Pressure Visibility Wind Dir Wind Speed Gust Speed Precip Events Conditions
12:54 AM 82.0 °F 87.9 °F 73.9 °F 76% 30.00 in 10.0 mi SW 9.2 mph - N/A   Clear
1:54 AM 80.1 °F 84.5 °F 73.9 °F 81% 30.00 in 10.0 mi SW 8.1 mph - N/A   Clear
2:54 AM 79.0 °F - 73.0 °F 82% 30.00 in 10.0 mi SW 6.9 mph - N/A   Clear
3:54 AM 78.1 °F - 73.0 °F 84% 29.99 in 10.0 mi SW 8.1 mph - N/A   Clear
4:54 AM 77.0 °F - 73.0 °F 88% 29.99 in 10.0 mi SW 8.1 mph - N/A   Clear
5:54 AM 78.1 °F - 73.0 °F 84% 29.99 in 10.0 mi SSW 5.8 mph - N/A   Clear
6:54 AM 78.1 °F - 73.9 °F 87% 30.00 in 10.0 mi SW 6.9 mph - N/A   Clear
7:54 AM 82.0 °F 87.9 °F 73.9 °F 76% 30.00 in 10.0 mi SW 10.4 mph - N/A   Clear
8:54 AM 86.0 °F 93.8 °F 73.9 °F 67% 30.01 in 10.0 mi WSW 13.8 mph - N/A   Clear
9:54 AM 89.1 °F 97.0 °F 73.0 °F 59% 30.01 in 10.0 mi WSW 13.8 mph - N/A   Clear
10:54 AM 91.9 °F 100.7 °F 73.0 °F 54% 30.01 in 10.0 mi WSW 13.8 mph - N/A   Clear
11:54 AM 93.9 °F 102.1 °F 72.0 °F 49% 30.00 in 10.0 mi WSW 12.7 mph - N/A   Partly Cloudy
12:54 PM 97.0 °F 104.8 °F 71.1 °F 43% 30.00 in 10.0 mi West 15.0 mph 21.9 mph N/A   Partly Cloudy
1:54 PM 96.1 °F 103.5 °F 71.1 °F 44% 29.98 in 10.0 mi West 11.5 mph 17.3 mph N/A   Partly Cloudy
2:54 PM 99.0 °F 106.2 °F 70.0 °F 39% 29.96 in 10.0 mi West 10.4 mph 20.7 mph N/A   Scattered Clouds
3:54 PM 96.1 °F 107.1 °F 73.9 °F 49% 29.96 in 10.0 mi SSW 13.8 mph 21.9 mph N/A   Partly Cloudy
4:54 PM 93.0 °F 103.2 °F 73.9 °F 54% 29.95 in 10.0 mi SSW 15.0 mph 23.0 mph N/A   Clear
5:03 PM 93.0 °F 103.2 °F 73.9 °F 54% 29.96 in 10.0 mi South 17.3 mph 23.0 mph N/A   Clear
5:54 PM 91.0 °F 100.4 °F 73.9 °F 57% 29.95 in 10.0 mi SSW 17.3 mph 21.9 mph N/A   Clear
6:54 PM 89.1 °F 99.1 °F 75.0 °F 63% 29.96 in 10.0 mi SSW 11.5 mph 19.6 mph N/A   Partly Cloudy
7:54 PM 86.0 °F 95.1 °F 75.0 °F 70% 29.97 in 10.0 mi SSW 12.7 mph - N/A   Clear
8:54 PM 84.0 °F 92.6 °F 75.9 °F 76% 29.97 in 10.0 mi SSW 11.5 mph - N/A   Clear
9:54 PM 84.0 °F 92.6 °F 75.9 °F 76% 29.99 in 10.0 mi SSW 11.5 mph - N/A   Clear
10:54 PM 82.9 °F 90.8 °F 75.9 °F 79% 29.99 in 10.0 mi SSW 11.5 mph - N/A   Clear
11:54 PM 82.9 °F 90.8 °F 75.9 °F 79% 29.99 in 10.0 mi SW 13.8 mph - N/A   Clear